Location: Caltech
(34.1382°N, 118.1253°W)
Time: 17:15:17
(UTC-07:00)

Cosmos 1697 Rocket - Visible Passes

Search period start: 24 July 2016 00:00
Search period end: 03 August 2016 00:00
Orbit: 831 x 845 km, 71.0° (Epoch: 24 July)

Date Brightness Start Highest point End Pass type
(mag) Time Alt. Az. Time Alt. Az. Time Alt. Az.
24 Jul 2.8 03:52:12 38° S 03:54:23 71° ESE 04:00:02 10° NNE visible
25 Jul 2.9 03:36:48 48° SSE 03:38:16 66° ESE 03:43:53 10° NNE visible
25 Jul 4.5 05:19:20 10° W 05:22:42 16° NW 05:26:04 10° NNW visible
26 Jul 2.9 03:21:22 55° SE 03:22:09 60° ESE 03:27:43 10° NNE visible
26 Jul 4.4 05:03:07 11° W 05:06:31 17° WNW 05:10:08 10° NNW visible
27 Jul 3.0 03:05:53 55° ESE 03:06:02 55° ESE 03:11:34 10° NNE visible
27 Jul 4.4 04:47:38 14° W 04:50:20 18° WNW 04:54:11 10° NNW visible
28 Jul 3.3 02:50:22 50° E 02:50:22 50° E 02:55:23 10° NNE visible
28 Jul 4.3 04:32:06 17° W 04:34:09 20° WNW 04:38:14 10° NNW visible
29 Jul 3.6 02:34:48 42° ENE 02:34:48 42° ENE 02:39:13 10° NNE visible
29 Jul 4.2 04:16:33 19° W 04:17:59 21° WNW 04:22:14 10° N visible
30 Jul 3.9 02:19:13 35° ENE 02:19:13 35° ENE 02:23:02 10° NE visible
30 Jul 4.1 04:00:57 22° WNW 04:01:49 23° WNW 04:06:14 10° N visible
31 Jul 4.2 02:03:35 30° ENE 02:03:35 30° ENE 02:06:50 10° NE visible
31 Jul 4.0 03:45:19 24° WNW 03:45:39 25° WNW 03:50:13 10° N visible
01 Aug 4.5 01:47:56 25° ENE 01:47:56 25° ENE 01:50:38 10° NE visible
01 Aug 4.0 03:29:40 26° WNW 03:29:40 26° WNW 03:34:12 10° N visible
02 Aug 4.7 01:32:15 21° NE 01:32:15 21° NE 01:34:26 10° NE visible
02 Aug 4.0 03:13:59 28° NW 03:13:59 28° NW 03:18:11 10° N visible
